EFKT

Kittilä Airport

Airport
ICAO code
EFKT
IATA Code
KTT
Summary
ICAO Region
EUR
ICAO Territory
Location

Kittilä, Lapland

Serving
Kittilä
Elevation
644 ft
Coordinates
67° 41' 42" N , 24° 51' 3" E
KCC
Airport CFIT
Altimeter Temperature Error Correction
Airport GND
Aircraft Ground De/Anti Icing
Airport RE
Landing on Contaminated Runways
Metar
EFKT 221620Z 17014KT 9999 -SN OVC008 M02/M03 Q0991

Description

Largely domestic but also international airport located in Kittilä, Finland.

Climatology

Subarctic climate (Köppen climate classification Dfc) - long, usually very cold winters, and short, cool to mild summers.

Runways

Designator Length Width Surface Rops
16/34 2500 45 ASP Yes/Yes

Airport map

Aerial View

SKYbrary Partners:

Safety knowledge contributed by: